Location: ??
(34.8000°N, 135.8035°E)
Time: 06:17:57
(UTC+00:00)

Daily predictions for brighter satellites

Satellite Brightness Start Highest point End
(mag) Time Altitude Azimuth Time Altitude Azimuth Time Altitude Azimuth
Atlas Centaur 2 4.3 18:29:32 30° SE 18:29:32 30° SE 18:34:32 10° E
CZ-3A R/B 4.4 18:44:59 50° S 18:44:59 50° S 18:55:00 10° ESE
ATLAS 2A CENTAUR R/B 4.5 19:06:15 24° SE 19:06:15 24° SE 19:11:05 10° ESE
COSMOS 2428 4.4 19:08:55 25° NE 19:08:55 25° NE 19:11:13 10° NNE
ADEOS 4.5 19:21:21 10° NNE 19:32:36 - S 19:25:02 42° NE
SJ 16-02 3.1 19:36:24 26° SSE 19:36:24 26° SSE 19:38:20 10° SSE
Cosmos 1763 Rocket 4.2 19:42:04 42° NNE 19:42:04 42° NNE 19:45:31 10° NNE
Meteor 1-24 Rocket 3.7 19:48:07 66° SSW 19:48:07 66° SSW 19:53:05 10° S
Cosmos 1844 4.3 19:50:52 44° SSW 19:50:52 44° SSW 19:54:59 10° S
SL-4 R/B 3.6 19:51:06 27° SE 19:51:28 28° SE 19:54:48 10° ENE
Cosmos 1898 Rocket 4.3 19:51:06 20° N 19:54:22 47° ENE 19:59:20 10° SE
H-2A R/B 4.5 19:57:48 10° S 19:58:13 12° S 19:58:13 12° S
Gbstr 26 Del rocket 4.4 20:00:04 24° SW 20:04:47 80° SE 20:12:52 10° NE
Okean 1-7 Rocket 4.5 20:01:42 10° N 20:06:06 49° E 20:10:26 10° SSE
ERS-2 3.6 20:03:29 10° SE 20:06:50 36° ENE 20:09:18 16° NNE
Cosmos 1844 Rocket 4.2 20:10:20 20° SSW 20:10:20 20° SSW 20:12:20 10° SSW
CZ-4B R/B 2.2 20:06:35 10° SSE 20:09:02 46° SSE 20:09:02 46° SSE
SL-16 R/B 4.4 20:07:54 10° SSE 20:12:29 26° ESE 20:17:05 10° NE
Meteor PRIRODA 3.8 20:09:48 10° NNE 20:13:25 68° E 20:17:00 10° S
Cosmos 1455 Rocket 3.2 20:10:12 10° SSW 20:15:19 53° NNW 20:18:52 10° N
Cosmos 1953 2.4 20:12:11 10° S 20:16:09 72° E 20:20:07 10° N
ATLAS CENTAUR R/B 3.3 20:13:05 10° S 20:16:17 27° ESE 20:19:26 10° NE
Atlas Centaur 2 3.3 20:12:08 28° WSW 20:16:31 60° S 20:24:53 10° E
Cosmos 1908 4.4 20:13:25 10° SSE 20:17:01 42° E 20:20:38 10° NNE
Cosmos 2278 Rocket 2.9 20:13:52 10° N 20:19:25 52° ENE 20:24:55 10° SE
SKYMED 2 3.5 20:15:32 10° SSE 20:19:52 89° E 20:23:08 18° NNW
Cosmos 2208 Rocket 4.4 20:18:11 10° S 20:23:35 67° ESE 20:28:58 10° NNE
Cosmos 2237 Rocket 2.1 20:18:42 10° SSW 20:24:20 76° WNW 20:30:03 10° NNE
Cosmos 1814 Rocket 4.1 20:20:18 10° S 20:25:25 77° ESE 20:30:33 10° NNE
CZ-2C R/B 1.4 20:25:49 42° SW 20:27:04 67° SSE 20:31:01 10° E
NOSS 0 Rocket 4.0 20:21:47 10° SW 20:27:50 55° WNW 20:33:53 10° NNE
Cosmos 1937 Rocket 3.7 20:22:52 10° NNW 20:28:09 72° ENE 20:33:20 10° SSE
Cosmos 2219 Rocket 3.8 20:31:09 16° NNW 20:31:09 16° NNW 20:33:00 10° N
Cosmos 2333 Rocket 4.0 20:32:36 14° NNW 20:32:36 14° NNW 20:33:59 10° NNW
USA 307 3.7 20:28:09 10° SSW 20:32:15 51° SE 20:36:21 10° NE
deb Chang Zheng 4 3.7 20:30:13 10° N 20:34:18 47° WNW 20:38:21 10° SSW
Envisat 3.4 20:29:24 10° NNE 20:34:27 66° E 20:39:29 10° S
GEOS 3 Rocket 4.2 20:31:01 10° SE 20:36:14 59° NE 20:41:33 10° NNW
BREEZE M DEB (TANK) 1.1 20:37:13 70° NNE 20:37:13 70° NNE 20:39:35 10° NE
PSLV R/B 4.0 20:35:08 10° SSE 20:39:11 76° ENE 20:43:19 10° N
Cosmos 1461 4.5 20:39:56 22° NW 20:39:56 22° NW 20:43:02 10° N
Cosmos 44 Rocket 3.9 20:35:43 11° NNW 20:40:39 62° ENE 20:45:47 10° SE
USA 308 3.3 20:36:48 10° SSW 20:40:58 63° SE 20:45:08 10° NE
USA 305 3.2 20:37:02 10° SW 20:41:14 68° SE 20:45:27 10° NE
Okean O Rocket 4.2 20:39:15 10° NE 20:42:46 23° E 20:46:14 10° SSE
CENTAUR R/B 3.7 20:41:51 10° S 20:46:59 41° ESE 20:52:54 10° NE
MOS 1 Rocket 3.4 20:43:47 10° S 20:48:52 65° W 20:53:41 10° NNW
Cosmos 1464 Rocket 4.4 20:44:20 10° SW 20:49:58 38° WNW 20:55:38 10° N
Cosmos 1340 3.3 20:46:33 10° N 20:50:15 56° E 20:53:56 10° SSE
COSMOS 2428 4.2 20:51:01 17° NW 20:51:01 17° NW 20:53:56 10° NNW
SAR-Lupe-4 3.4 20:46:51 10° S 20:50:25 74° WSW 20:54:00 10° NNW
Cosmos 1602 Rocket 4.1 20:48:00 10° N 20:52:26 61° E 20:56:50 10° SSE
OAO 1 Rocket 4.4 20:49:19 22° W 20:52:48 86° N 20:58:08 10° E
Cosmos 540 Rocket 3.9 20:48:19 10° SW 20:53:01 37° WNW 20:57:45 10° N
USA 306 2.9 20:48:50 10° SW 20:53:05 87° SE 20:57:21 10° NE
Cosmos 1980 4.2 20:52:19 10° SW 20:57:29 36° WNW 21:02:40 10° N
SL-8 R/B 4.4 20:54:23 15° NW 20:58:11 48° NNE 21:02:50 10° ESE
Cosmos 1703 3.2 20:55:11 10° N 20:59:05 87° E 21:02:59 10° S
SWAS 4.4 20:55:49 10° SSW 21:00:00 61° WNW 21:04:15 10° NNE
SAR-Lupe-1 4.2 20:57:36 10° S 21:01:06 52° W 21:04:36 10° NNW
OAO 2 Rocket 3.2 20:58:03 19° W 21:01:36 89° S 21:06:33 10° E
Spot 2 4.0 20:57:47 10° NNE 21:01:50 79° ESE 21:05:55 10° S
USA 238 DEB 3.8 20:55:44 10° SSW 21:02:11 77° ESE 21:08:56 10° NE
SMAP 3.7 20:57:36 10° NNE 21:02:13 59° E 21:06:46 10° S
USA 238 3.8 20:55:52 10° SSW 21:02:19 76° ESE 21:09:03 10° NE
BREEZE-M DEB (TANK) 3.4 21:03:27 19° WNW 21:05:16 35° NNW 21:11:59 10° NE
CZ-4B R/B 3.9 21:03:06 10° NNW 21:05:48 20° WNW 21:08:34 10° WSW
COSMO-SKYMED 1 3.7 21:04:35 10° SSW 21:08:05 24° W 21:11:37 10° NW
H-2A R/B 3.6 21:06:05 10° NNW 21:09:10 26° WNW 21:12:18 10° SW
OAO 3 Copernicus 4.4 21:06:41 10° WSW 21:11:41 77° SSE 21:16:44 10° E
Lacrosse 5 rocket 2.5 21:08:57 10° NNW 21:12:26 33° NE 21:15:47 10° ESE
GPS 2-04 Rocket1 4.2 21:10:42 12° W 21:13:44 25° SSW 21:17:12 10° SSE
Lacrosse 4 Rocket 1.6 21:11:59 10° SW 21:16:02 49° WNW 21:20:13 10° NNE
MOS 1-B 4.3 21:12:11 10° NNE 21:17:58 81° WNW 21:23:44 10° SSW
CZ-4B DEB 4.2 21:14:18 10° N 21:19:47 64° WNW 21:25:16 10° SSW
Cosmos 1092 Rocket 4.0 21:17:19 10° NNW 21:23:25 70° W 21:29:33 10° S
Cosmos 1400 Rocket 3.7 21:20:15 10° SW 21:23:48 29° WNW 21:27:25 10° NNW
YAOGAN 6 3.6 21:21:59 10° NNW 21:25:04 25° WNW 21:28:08 10° SW
Cosmos 1689 Rocket 3.6 21:25:13 10° SW 21:27:21 18° W 21:29:29 10° NW
Cosmos 2279 Rocket 4.3 21:21:48 10° S 21:27:59 77° E 21:34:15 10° N
Cosmos 1328 3.9 21:24:39 10° NNW 21:28:29 54° W 21:32:16 10° S
SL-4 R/B 2.8 21:27:37 10° W 21:30:59 31° NNW 21:34:36 10° NNE
Cosmos 1300 2.7 21:29:36 10° SSW 21:33:21 59° W 21:37:07 10° N
